Tracking 30061 objects as of 9-Dec-2024
HD Live streaming from Space Station
objects crossing your sky now

THOR ABLESTAR R/B

Track THOR ABLESTAR R/B now!
10-day predictions


NORAD ID: 893
Int'l Code: 1964-063A
Perigee: 1,036.4 km
Apogee: 1,076.5 km
Inclination: 90.2 °
Period: 106.2 minutes
Semi major axis: 7427 km
RCS: 4.0212 m2 (large)
Launch date: October 6, 1964
Source: United States (US)
Launch site: AIR FORCE WESTERN TEST RANGE (AFWTR)

Note: This is a ROCKET BODY
Your satellite tracking list
Your tracking list is empty




NASA's NSSDC Master Catalog

Two Line Element Set (TLE):
1 00893U 64063A   24343.56842383  .00000080  00000-0  10119-3 0  9997
2 00893  90.2231  62.4483 0026987  49.2231  82.9730 13.56264362976716
Source of the keplerian elements: AFSPC